Voltar ao catálogo

CZ-6A DEB

AtivoPO
NORAD 55516·DEBRIS·🇨🇳 China

Lançado Nov 11, 2022 de Taiyuan Satellite Launch Center

Loading…

Próximas Passagens (próximas 24 horas)

TLE

AtualizadoSource: Space-Track

Época: Sep 13, 2026, 04:58 UTC

1 55516U 22151XN  26256.20719833  .00080052  00000-0  34431-2 0  9999
2 55516  98.5804 350.0284 0024237 264.5419  95.3048 15.22042768199824

Acompanhe CZ-6A DEB em tempo real com AllMySat

Download on the App Store